Regional Weather Roundup
Issued by NWS Mt. Holly, NJ

Home | Current Version | Previous Version | Text Only | Print | Product List | Glossary On
Versions: 1 2 3 4 5 6 7 8 9 10 11 12 13 14 15 16 17 18 19 20 21 22 23 24 25 26 27 28
000
ASUS41 KPHI 232110
RWRPHI

REGIONAL WEATHER ROUNDUP
NATIONAL WEATHER SERVICE MOUNT HOLLY NJ
500 PM EDT WED APR 23 2014

NOTE:  "FAIR" INDICATES FEW OR NO CLOUDS BELOW 12,000 FEET WITH NO
SIGNIFICANT WEATHER AND/OR OBSTRUCTIONS TO VISIBILITY.

 * = STATION DOES NOT REPORT PRECIPITATION (E.G. RAIN, SNOW, ETC.)
        OR FOG.

NJZ015>026-232200-
SOUTHERN NEW JERSEY

CITY           SKY/WX    TMP DP  RH WIND       PRES   REMARKS
POMONA         PTSUNNY   59  33  37 NW28G36   29.68R
RIO GRANDE*    SUNNY     57  37  47 NW15G25   29.74R
MILLVILLE      MOSUNNY   59  36  42 NW20G31   29.72S
WRIGHTSTOWN    PTSUNNY   59  35  39 NW22G32   29.67R
MOUNT HOLLY    MOSUNNY   59  35  40 NW13G28   29.70R
TRENTON        MOSUNNY   59  33  37 NW18G31   29.69R

$$
NJZ001>014-232200-
NORTHERN NEW JERSEY

CITY           SKY/WX    TMP DP  RH WIND       PRES   REMARKS
SUSSEX         PTSUNNY   54  34  46 NW10G23   29.72R
ANDOVER*         N/A     52  34  50 N14G28    29.70R
MORRISTOWN     PTSUNNY   57  34  41 N15G38    29.67R
NEWARK         PTSUNNY   60  34  37 NW28G40   29.65R
TETERBORO      SUNNY     58  34  40 NW23G41   29.63R
CALDWELL       PTSUNNY   56  34  43 NW18G35   29.67R
SOMERVILLE     MOSUNNY   58  34  40 NW22G38   29.67R
ALLAIRE*       CLOUDY    59  34  38 NW23G29   29.64S
TOMS RIVER*    PTSUNNY   59  34  38 NW23G32   29.66R

$$
PAZ043-044-047-054-055-060>062-066>071-232200-
EASTERN PENNSYLVANIA

CITY           SKY/WX    TMP DP  RH WIND       PRES   REMARKS
PHILADELPHIA   MOSUNNY   60  32  34 NW24G44   29.74R
NORTH PHILA    MOSUNNY   59  33  37 NW21G37   29.73R
BLUE BELL      MOSUNNY   57  34  41 NW12G22   29.73R
DOYLESTOWN     MOSUNNY   56  36  47 NW15G28   29.71R
QUAKERTOWN*    CLOUDY    54  36  50 W14G21    29.75R
POTTSTOWN      PTSUNNY   57  36  45 NW22G30   29.75R
LANCASTER      PTSUNNY   54  36  50 W25G32    29.79R
COATESVILLE    PTSUNNY   54  36  50 NW22G30   29.77S
READING        CLOUDY    55  34  45 NW21G29   29.76R
ALLENTOWN      PTSUNNY   54  34  46 NW17G23   29.75R
MOUNT POCONO   CLOUDY    41  32  70 NW18G31   29.73R
HAZLETON       CLOUDY    45  30  57 NW14G22   29.80R
WILKES BARRE   CLOUDY    46  32  58 NW23G31   29.79R

$$
DEZALL-MDZ008-012-015-019-020-232200-
DELAWARE AND EASTERN MARYLAND

CITY           SKY/WX    TMP DP  RH WIND       PRES   REMARKS
WILMINGTON     PTSUNNY   57  35  43 NW29G35   29.77R
DOVER          MOSUNNY   59  36  42 NW22G37   29.72R
GEORGETOWN     MOSUNNY   61  34  36 NW14G30   29.75R
EASTON         MOSUNNY   63  39  42 NW17G28   29.82S
PATUXENT       MOSUNNY   61  34  36 NW24G31   29.80R
OCEAN CITY     MOSUNNY   60  36  40 NW18G31   29.74R
WALLOPS ISLAND MOSUNNY   61  37  41 NW21G35   29.77R
CAMBRIDGE      SUNNY     61  36  39 NW12G24   29.79S
SALISBURY      PTSUNNY   62  35  36 NW14G29   29.76S

$$
PAZ001-021-NYZ056-072-MDZ011-DCZ001-232200-
OTHER NEARBY LOCATIONS

CITY           SKY/WX    TMP DP  RH WIND       PRES   REMARKS
HARRISBURG     PTSUNNY   53  35  50 NW22G32   29.83R
STATE COLLEGE  CLOUDY    45  30  57 NW17      29.91R
WILLIAMSPORT   PTSUNNY   51  30  44 NW18G29   29.82S
BINGHAMTON     LGT SNOW  36  34  93 NW13G25   29.81R FOG     WCI  27
NEW YORK CITY  PTSUNNY   59  33  37 NW12G29   29.66R
BALTIMORE      MOSUNNY   56  35  45 NW17G26   29.82R
WASHINGTON DC  MOSUNNY   60  35  39 NW20G26   29.85R

$$



USA.gov is the U.S. government's official web portal to all federal, state and local government web resources and services.